OSH weather

Wittman Regional Airport
Oshkosh, Wisconsin, United States

Public forecast

Using degrees Fahrenheit for public forecast. Weather courtesy of forecast.io.

Current aviation weather report (METAR) for Wittman Regional Airport

Retrieved 2020/05/29 12:53 UTC (27 minutes ago):

KOSH 291253Z 31011G18KT 10SM CLR 16/09 A2993 RMK AO2 SLP128 T01560094

Aviation forecast (TAF) for Wittman Regional Airport

Forecast is more than 12 hours old.

Retrieved 2019/07/30 12:39 UTC (10 months ago):

TAF KOSH 301136Z 3012/3112 36006KT P6SM BKN050 TEMPO 3015/3017 BKN025 FM301700 01006KT P6SM BKN035 FM302200 04005KT P6SM SCT045 FM310200 11003KT P6SM SKC FM310900 VRB03KT 6SM BR SKC